[[{"header":{"parameterUnit":"m.s-1","parameterCategory":1,"la1":30.2991,"la2":30.254,"lo1":-89.0895,"lo2":-89.0444,"dy":0.0017,"dx":0.0017,"nx":28,"ny":28,"refTime":"2025-07-24T03:00:00:Z","depth":0,"parameterNumber":2,"parameterNumberName":"U-component_of_WINDS"},"data":[0,0,0,0,0,0,0,0,0,0,0,0,0,0,0,0,0,0,0,0,0,0,0,0,0,0,0,0,0,0,0,0,0,0,0,0,0,0,0,0,0,0,0,0,0,0,0,0,0,0,0,0,0,0,0,0,0,0,-4.1001,-4.1,0,-4.095,-4.095,-4.0949,-4.085,-4.0848,-4.0846,-4.0845,-4.0795,-4.0796,-4.0796,0,0,0,0,0,0,0,0,0,0,0,0,0,-4.1014,-4.1014,-4.1001,-4.1,-4.1,-4.0951,-4.095,-4.0949,-4.0851,-4.0848,-4.0846,-4.0844,-4.0795,-4.0796,-4.0796,0,0,0,0,0,0,0,0,0,0,0,0,0,-4.099,-4.1014,-4.1001,-4.0944,-4.0939,-4.0951,-4.095,-4.0949,-4.0851,-4.0848,-4.0845,-4.0843,-4.0795,-4.0796,-4.0797,-4.086,0,0,-4.0799,-4.0799,0,0,0,0,0,0,0,0,-4.0992,-4.099,-4.0953,-4.0948,-4.0942,-4.0904,-4.0936,-4.0919,-4.0852,-4.0885,-4.0845,-4.0841,-4.0834,-4.0831,-4.0828,-4.0858,-4.0856,-4.0799,-4.0799,-4.08,-4.08,0,0,0,0,0,0,0,-4.0993,-4.0992,-4.0981,-4.0953,-4.0946,-4.0922,-4.0916,-4.0933,-4.0876,-4.0882,-4.0874,-4.087,-4.083,-4.0828,-4.0827,-4.0855,-4.0799,-4.08,-4.08,-4.08,-4.0932,-4.0934,0,0,0,0,0,0,-4.1003,-4.0994,-4.0982,-4.0979,-4.096,-4.0924,-4.0917,-4.0919,-4.0876,-4.0866,-4.0872,-4.0865,-4.0828,-4.0826,-4.0824,-4.0893,-4.08,-4.08,-4.0801,-4.0929,-4.0932,-4.0936,0,0,0,0,0,0,-4.1004,-4.1003,-4.0985,-4.0984,-4.098,-4.0927,-4.093,-4.092,-4.0917,-4.0869,-4.0858,-4.088,-4.0826,-4.0823,-4.0851,-4.089,-4.0801,-4.0801,-4.0925,-4.093,-4.0934,-4.1034,0,0,0,0,0,0,-4.1004,-4.1004,-4.1027,-4.0986,-4.0981,-4.1012,-4.0933,-4.0921,-4.0918,-4.0909,-4.0873,-4.0864,-4.0823,-4.0851,-4.0852,-4.089,-4.0802,-4.0921,-4.0927,-4.0932,-4.1027,-4.1041,-4.1054,0,0,0,0,0,-4.1005,-4.1058,-4.1028,-4.1028,-4.1008,-4.1014,-4.1011,-4.0962,-4.0922,-4.0944,-4.0914,-4.0866,-4.0887,-4.0854,-4.0855,-4.0894,-4.0918,-4.0925,-4.0932,-4.1021,-4.1038,-4.1053,0,0,0,0,0,0,-4.1106,-4.1051,-4.1018,-4.1059,-4.1042,-4.0998,-4.1024,-4.0983,-4.0977,-4.0969,-4.0909,-4.0902,-4.0937,-4.0919,-4.0883,-4.0952,-4.0895,-4.0902,-4.0962,-4.0978,-4.0992,-4.0994,-4.0803,0,0,0,0,0,-4.1133,-4.1142,-4.1094,-4.1135,-4.1128,-4.1078,-4.1079,-4.1042,-4.1023,-4.1015,-4.0986,-4.0969,-4.0972,-4.0975,-4.0975,-4.1025,-4.1014,-4.1052,-4.1065,-4.1077,-4.1083,-4.1106,-4.1121,-4.0958,-4.0958,-4.0958,0,0,-4.1188,-4.116,-4.1169,-4.1154,-4.1136,-4.1147,-4.1073,-4.1087,-4.1094,-4.1017,-4.1041,-4.102,-4.0997,-4.1036,-4.1051,-4.1021,-4.1126,-4.1085,-4.1095,-4.1094,-4.1114,-4.113,-4.1144,-4.0963,-4.0962,-4.0961,0,0,-4.1294,-4.1274,-4.1305,-4.1289,-4.1263,-4.1229,-4.1237,-4.1199,-4.1181,-4.1204,-4.1146,-4.1155,-4.1161,-4.1146,-4.114,-4.1241,-4.1196,-4.1243,-4.1312,-4.1335,-4.1348,-4.1359,-4.1392,-4.1405,-4.125,-4.125,-4.125,0,-4.1366,-4.1379,-4.1326,-4.1344,-4.1338,-4.1269,-4.1299,-4.1287,-4.1263,-4.1261,-4.1228,-4.1233,-4.1213,-4.1246,-4.1271,-4.1269,-4.1275,-4.1245,-4.135,-4.1361,-4.137,-4.1402,-4.1415,-4.1256,-4.1255,-4.1254,-4.1254,0,-4.1468,-4.1478,-4.1506,-4.1483,-4.1481,-4.1506,-4.1456,-4.1461,-4.1426,-4.1396,-4.142,-4.1394,-4.1386,-4.1392,-4.1358,-4.142,-4.1402,-4.1361,-4.1302,-4.1392,-4.142,-4.1432,-4.1264,-4.1262,-4.126,-4.1259,0,0,-4.1634,-4.1581,-4.1592,-4.158,-4.1547,-4.1553,-4.1575,-4.1567,-4.1571,-4.1558,-4.1573,-4.158,-4.1541,-4.1534,-4.1498,-4.1519,-4.1597,-4.1474,-4.1473,-4.1496,-4.1662,-4.1691,-4.1706,-4.1569,-4.1571,-4.1573,-4.1663,0,-4.173,-4.1761,-4.1714,-4.1757,-4.1765,-4.17,-4.1718,-4.17,-4.1673,-4.1676,-4.1647,-4.1652,-4.1602,-4.1597,-4.1615,-4.1584,-4.1629,-4.1577,-4.1581,-4.1582,-4.1585,-4.1721,-4.1751,-4.1838,-4.1674,-4.1676,-4.1677,0,-4.1846,-4.1836,-4.1879,-4.1842,-4.1843,-4.186,-4.1848,-4.1853,-4.1831,-4.181,-4.1802,-4.1759,-4.1777,-4.1722,-4.1745,-4.1711,-4.171,-4.1696,-4.1698,-4.1694,-4.1633,-4.1718,-4.1864,-4.1876,-4.1694,-4.1693,-4.1692,0,-4.1959,-4.1957,-4.1982,-4.1974,-4.1932,-4.1946,-4.1929,-4.1904,-4.1902,-4.1892,-4.189,-4.1883,-4.1879,-4.1875,-4.1831,-4.1795,-4.1859,-4.1801,-4.1841,-4.1842,-4.1855,-4.1854,-4.2,-4.186,-4.186,-4.1859,-4.1859,0,-4.2069,-4.2097,-4.2032,-4.2047,-4.2076,-4.2023,-4.2054,-4.2031,-4.2009,-4.2019,-4.1964,-4.1974,-4.1916,-4.192,-4.1887,-4.191,-4.1909,-4.1892,-4.1882,-4.1895,-4.1897,-4.1891,-4.1883,-4.1863,-4.1862,-4.1861,-4.1861,0,-4.2199,-4.2157,-4.2179,-4.2137,-4.2128,-4.2151,-4.2115,-4.2128,-4.2098,-4.211,-4.211,-4.2064,-4.2065,-4.2022,-4.2015,-4.1992,-4.203,-4.2011,-4.2036,-4.2029,-4.207,-4.2066,-4.2216,-4.2232,-4.2085,-4.2086,-4.2087,0,-4.2271,-4.2291,-4.2251,-4.2253,-4.2239,-4.2243,-4.224,-4.2189,-4.2188,-4.2164,-4.2179,-4.2176,-4.2171,-4.2177,-4.2142,-4.2137,-4.2115,-4.2168,-4.2114,-4.2126,-4.2112,-4.211,-4.2111,-4.2179,-4.2181,-4.2182,-4.2183,0,-4.2402,-4.238,-4.2377,-4.2368,-4.2365,-4.2355,-4.2342,-4.2347,-4.2291,-4.2293,-4.2293,-4.2289,-4.2282,-4.2279,-4.2267,-4.225,-4.2207,-4.2201,-4.2209,-4.2221,-4.2234,-4.2225,-4.2064,-4.2197,-4.2196,-4.2195,-4.2194,-4.2194,-4.2503,-4.2517,-4.2491,-4.249,-4.2474,-4.2463,-4.2471,-4.2442,-4.2441,-4.243,-4.2401,-4.2406,-4.2383,-4.2362,-4.2349,-4.2352,-4.2326,-4.2339,-4.2341,-4.2345,-4.2351,-4.2237,-4.235,-4.235,-4.2349,-4.2349,-4.2349,0,-4.2629,-4.2609,-4.2609,-4.259,-4.259,-4.255,-4.2533,-4.2534,-4.2539,-4.2521,-4.2517,-4.2517,-4.2514,-4.2479,-4.2472,-4.2481,-4.2461,-4.2481,-4.2478,-4.2474,-4.2377,-4.2368,-4.2497,-4.2497,-4.2497,-4.2497,-4.2497,-4.2497,-4.2694,-4.2715,-4.269,-4.2702,-4.2682,-4.2685,-4.2679,-4.2668,-4.2653,-4.2655,-4.2651,-4.2629,-4.2604,-4.2594,-4.259,-4.2579,-4.2578,-4.2604,-4.2587,-4.2496,-4.2481,-4.2468,-4.246,-4.2605,-4.2605,-4.2684,-4.2685,-4.2685]},{"header":{"parameterUnit":"m.s-1","parameterCategory":1,"la1":30.2991,"la2":30.254,"lo1":-89.0895,"lo2":-89.0444,"dy":0.0017,"dx":0.0017,"nx":28,"ny":28,"refTime":"2025-07-24T03:00:00:Z","depth":0,"parameterNumber":3,"parameterNumberName":"V-component_of_WINDS"},"data":[0,0,0,0,0,0,0,0,0,0,0,0,0,0,0,0,0,0,0,0,0,0,0,0,0,0,0,0,0,0,0,0,0,0,0,0,0,0,0,0,0,0,0,0,0,0,0,0,0,0,0,0,0,0,0,0,0,0,3.209,3.209,0,3.208,3.2079,3.2079,3.2112,3.2113,3.2114,3.2115,3.2096,3.2094,3.2093,0,0,0,0,0,0,0,0,0,0,0,0,0,3.2135,3.2134,3.2091,3.209,3.209,3.208,3.2079,3.2079,3.2112,3.2113,3.2115,3.2116,3.2096,3.2095,3.2093,0,0,0,0,0,0,0,0,0,0,0,0,0,3.2118,3.2133,3.2091,3.2106,3.2107,3.208,3.2079,3.2079,3.2112,3.2113,3.2115,3.2116,3.2097,3.2095,3.2093,3.2048,0,0,3.2086,3.2085,0,0,0,0,0,0,0,0,3.2119,3.2117,3.2104,3.2105,3.2106,3.2099,3.2088,3.2068,3.2111,3.211,3.2115,3.2117,3.2095,3.2093,3.2087,3.2047,3.2046,3.2086,3.2084,3.2083,3.2083,0,0,0,0,0,0,0,3.212,3.2117,3.2086,3.2103,3.2105,3.2111,3.2111,3.2084,3.2093,3.211,3.2112,3.2111,3.2096,3.209,3.2087,3.2046,3.2086,3.2084,3.2082,3.2081,3.197,3.1969,0,0,0,0,0,0,3.2121,3.2118,3.2086,3.2086,3.2117,3.2109,3.2108,3.2099,3.2094,3.2095,3.211,3.2113,3.2093,3.209,3.2087,3.2035,3.2083,3.2081,3.208,3.1972,3.197,3.1968,0,0,0,0,0,0,3.2121,3.2117,3.2087,3.2103,3.2099,3.2107,3.2096,3.2098,3.2092,3.2094,3.2095,3.2102,3.2094,3.209,3.2058,3.2035,3.208,3.2078,3.1974,3.1971,3.1969,3.1931,0,0,0,0,0,0,3.2123,3.2118,3.2101,3.2102,3.2098,3.206,3.2095,3.2097,3.2089,3.2093,3.2087,3.2087,3.2095,3.2062,3.2056,3.2033,3.2077,3.1976,3.1973,3.197,3.1934,3.1927,3.1922,0,0,0,0,0,3.2124,3.2089,3.2101,3.2096,3.2079,3.2059,3.2056,3.2068,3.2087,3.207,3.2072,3.2087,3.2039,3.2058,3.2052,3.2028,3.1977,3.1974,3.197,3.1937,3.1929,3.1922,0,0,0,0,0,0,3.2081,3.2089,3.2102,3.2067,3.2062,3.2064,3.2043,3.2058,3.2046,3.2049,3.2062,3.2061,3.2027,3.2024,3.2045,3.1985,3.2011,3.2006,3.1988,3.198,3.1974,3.1975,3.2075,0,0,0,0,0,3.2069,3.2054,3.206,3.2028,3.2026,3.2035,3.2026,3.2037,3.2031,3.2029,3.2028,3.202,3.2004,3.1992,3.1976,3.1935,3.1934,3.1915,3.1909,3.1904,3.1899,3.1878,3.187,3.1956,3.1956,3.1956,0,0,3.204,3.2043,3.2032,3.202,3.2018,3.2,3.2033,3.2012,3.2,3.2024,3.1996,3.1995,3.1988,3.1952,3.1936,3.1948,3.1876,3.1899,3.1895,3.1893,3.1874,3.1866,3.1858,3.1954,3.1954,3.1955,0,0,3.1981,3.1981,3.1956,3.1954,3.1952,3.1959,3.1953,3.1953,3.1955,3.1927,3.1947,3.1931,3.1901,3.1896,3.1889,3.1832,3.1845,3.1826,3.1792,3.1772,3.1765,3.1759,3.1739,3.1732,3.1821,3.1821,3.1821,0,3.1945,3.1922,3.1939,3.1919,3.1914,3.194,3.1913,3.191,3.1901,3.1896,3.1912,3.1878,3.1874,3.1838,3.1825,3.1818,3.1811,3.1826,3.1765,3.176,3.1754,3.1735,3.1728,3.1819,3.1819,3.1819,3.182,0,3.1879,3.1863,3.1842,3.1837,3.1829,3.1806,3.1819,3.1808,3.182,3.1825,3.1797,3.1795,3.1781,3.1773,3.1782,3.1739,3.1747,3.1764,3.179,3.1743,3.1726,3.1719,3.1816,3.1816,3.1817,3.1818,0,0,3.1788,3.1797,3.1789,3.1789,3.179,3.1777,3.1755,3.1744,3.1735,3.1729,3.1711,3.1688,3.1704,3.1697,3.1706,3.1689,3.1645,3.1708,3.1708,3.1696,3.1597,3.1585,3.1576,3.1655,3.1653,3.1652,3.1598,0,3.173,3.1696,3.1712,3.1675,3.1661,3.1687,3.1668,3.1666,3.1671,3.1659,3.1663,3.1647,3.167,3.1666,3.165,3.1653,3.1625,3.1658,3.1636,3.1635,3.1637,3.1567,3.1552,3.1501,3.1591,3.159,3.1589,0,3.1656,3.1652,3.1614,3.1621,3.1615,3.1598,3.1591,3.1579,3.1578,3.1583,3.1577,3.1591,3.157,3.1597,3.1567,3.1589,3.1582,3.1583,3.1581,3.1578,3.1609,3.1562,3.1485,3.1477,3.1579,3.1579,3.158,0,3.1595,3.1579,3.1555,3.1553,3.156,3.1548,3.155,3.155,3.1544,3.1537,3.1533,3.1523,3.1517,3.1508,3.1519,3.1538,3.1488,3.1516,3.1491,3.149,3.1477,3.1478,3.1398,3.1474,3.1474,3.1474,3.1474,0,3.1527,3.1503,3.1528,3.1513,3.1487,3.1507,3.148,3.1484,3.1485,3.1471,3.1492,3.1478,3.1494,3.1481,3.149,3.1464,3.1461,3.1464,3.1466,3.1462,3.1461,3.1456,3.146,3.1472,3.1472,3.1473,3.1473,0,3.1453,3.1469,3.1445,3.1455,3.1457,3.1438,3.1446,3.1432,3.144,3.1422,3.1419,3.1431,3.1417,3.1428,3.1413,3.142,3.1386,3.1393,3.1387,3.1389,3.1363,3.1366,3.1277,3.1266,3.1349,3.1348,3.1347,0,3.1409,3.1391,3.1401,3.1395,3.1397,3.1385,3.138,3.14,3.1393,3.1392,3.1378,3.1368,3.136,3.1336,3.1343,3.1332,3.1339,3.1309,3.1337,3.1335,3.1339,3.134,3.1339,3.1303,3.1302,3.1301,3.13,0,3.1328,3.1338,3.1331,3.1327,3.1322,3.1319,3.1317,3.131,3.133,3.1322,3.131,3.1304,3.1292,3.1281,3.1274,3.1274,3.129,3.1292,3.1285,3.128,3.1278,3.1279,3.1371,3.1293,3.1294,3.1294,3.1295,3.1295,3.1267,3.1254,3.1261,3.1253,3.1255,3.1254,3.1243,3.1251,3.1243,3.1236,3.1248,3.1233,3.1234,3.1227,3.1226,3.1214,3.1226,3.1217,3.1214,3.1212,3.1208,3.1281,3.1212,3.1213,3.1213,3.1213,3.1213,0,3.1189,3.1195,3.1188,3.1188,3.1181,3.1202,3.1202,3.1195,3.1183,3.1184,3.1177,3.1165,3.1155,3.1162,3.1154,3.1143,3.115,3.114,3.1141,3.1141,3.1197,3.1204,3.1135,3.1135,3.1135,3.1135,3.1135,3.1135,3.1147,3.1126,3.1137,3.1118,3.1124,3.1113,3.1112,3.1111,3.1112,3.1098,3.1092,3.1098,3.1102,3.1095,3.1086,3.1089,3.1085,3.1072,3.1077,3.1129,3.1136,3.1144,3.115,3.1071,3.1071,3.1021,3.1021,3.102]}]]